• In India
  • List of Countries
  • For 7 days
  • Water Temperature
  • Satellite Maps
  • Weather Map
  • Weather Widgets
  • user-avatar
    Login

    Hourly Weather Chachagui

    Today, 23 October, Tuesday

    Time Temperature Precipitation Wind Pressure Humidity
    00:00 +15°C° 0.1 mm 1 mps 604 mmHg 87%
    01:00 +15°C° 0 mm 1 mps 604 mmHg 86%
    02:00 +14°C° 0 mm 1 mps 604 mmHg 86%
    03:00 +14°C° 0 mm 1 mps 604 mmHg 86%
    04:00 +14°C° 0 mm 1 mps 604 mmHg 85%
    05:00 +15°C° 0 mm 1 mps 604 mmHg 82%
    06:00 +15°C° 0 mm 1 mps 605 mmHg 79%
    07:00 +16°C° 0 mm 1 mps 605 mmHg 75%
    08:00 +19°C° 0 mm 1 mps 606 mmHg 67%
    09:00 +21°C° 0 mm 1 mps 607 mmHg 58%
    10:00 +24°C° 0 mm 2 mps 608 mmHg 50%
    11:00 +24°C° 0 mm 2 mps 607 mmHg 50%
    12:00 +24°C° 0 mm 2 mps 607 mmHg 51%
    13:00 +25°C° 0 mm 3 mps 606 mmHg 52%
    14:00 +24°C° 0.3 mm 3 mps 606 mmHg 58%
    15:00 +23°C° 0.3 mm 2 mps 605 mmHg 64%
    16:00 +21°C° 0.3 mm 2 mps 604 mmHg 70%
    17:00 +19°C° 0.5 mm 2 mps 604 mmHg 78%
    18:00 +19°C° 0.5 mm 1 mps 604 mmHg 86%
    19:00 +16°C° 0.5 mm 1 mps 604 mmHg 93%
    20:00 +16°C° 0.4 mm 1 mps 604 mmHg 92%
    21:00 +16°C° 0.4 mm 1 mps 605 mmHg 91%
    22:00 +16°C° 0.4 mm 1 mps 605 mmHg 90%
    23:00 +16°C° 0.2 mm 1 mps 605 mmHg 89%

    Tomorrow, 24 October, Wednesday

    Time Temperature Precipitation Wind Pressure Humidity
    00:00 +15°C° 0.2 mm 1 mps 605 mmHg 87%
    01:00 +15°C° 0.2 mm 1 mps 604 mmHg 86%
    02:00 +15°C° 0.1 mm 1 mps 604 mmHg 85%
    03:00 +15°C° 0.1 mm 1 mps 604 mmHg 85%
    04:00 +15°C° 0.1 mm 1 mps 604 mmHg 85%
    05:00 +15°C° 0.1 mm 1 mps 604 mmHg 83%
    06:00 +16°C° 0.1 mm 1 mps 605 mmHg 81%
    07:00 +16°C° 0.1 mm 1 mps 605 mmHg 79%
    08:00 +19°C° 0 mm 1 mps 606 mmHg 71%
    09:00 +22°C° 0 mm 1 mps 607 mmHg 63%
    10:00 +24°C° 0 mm 2 mps 608 mmHg 55%
    11:00 +24°C° 0.2 mm 2 mps 607 mmHg 58%
    12:00 +24°C° 0.2 mm 2 mps 606 mmHg 61%
    13:00 +23°C° 0.2 mm 2 mps 606 mmHg 64%
    14:00 +23°C° 0.7 mm 2 mps 605 mmHg 69%
    15:00 +21°C° 0.7 mm 2 mps 604 mmHg 74%
    16:00 +20°C° 0.7 mm 2 mps 604 mmHg 79%
    17:00 +19°C° 1 mm 2 mps 604 mmHg 84%
    18:00 +19°C° 1 mm 1 mps 604 mmHg 89%
    19:00 +18°C° 1 mm 1 mps 604 mmHg 94%
    20:00 +18°C° 1 mm 1 mps 604 mmHg 94%
    21:00 +16°C° 1 mm 1 mps 605 mmHg 94%
    22:00 +16°C° 1 mm 1 mps 605 mmHg 94%
    23:00 +16°C° 0.5 mm 1 mps 605 mmHg 94%

    Day after tomorrow, 25 October, Thursday

    Time Temperature Precipitation Wind Pressure Humidity
    00:00 +16°C° 0.5 mm 1 mps 604 mmHg 94%
    01:00 +16°C° 0.5 mm 1 mps 604 mmHg 94%
    02:00 +16°C° 0.3 mm 1 mps 604 mmHg 93%
    03:00 +15°C° 0.3 mm 1 mps 603 mmHg 92%
    04:00 +15°C° 0.3 mm 1 mps 603 mmHg 91%
    05:00 +16°C° 0.2 mm 1 mps 604 mmHg 88%
    06:00 +16°C° 0.2 mm 1 mps 604 mmHg 86%
    07:00 +16°C° 0.2 mm 1 mps 605 mmHg 83%
    08:00 +19°C° 0.1 mm 1 mps 605 mmHg 76%
    09:00 +21°C° 0.1 mm 1 mps 606 mmHg 70%
    10:00 +22°C° 0.1 mm 1 mps 607 mmHg 63%
    11:00 +23°C° 0.2 mm 1 mps 607 mmHg 63%
    12:00 +23°C° 0.2 mm 2 mps 606 mmHg 64%
    13:00 +23°C° 0.2 mm 2 mps 606 mmHg 64%
    14:00 +21°C° 0.7 mm 2 mps 605 mmHg 69%
    15:00 +20°C° 0.7 mm 2 mps 604 mmHg 74%
    16:00 +20°C° 0.7 mm 2 mps 603 mmHg 79%
    17:00 +20°C° 1 mm 1 mps 603 mmHg 84%
    18:00 +19°C° 1 mm 1 mps 603 mmHg 89%
    19:00 +16°C° 1 mm 0 mps 604 mmHg 93%
    20:00 +15°C° 0.6 mm 0 mps 604 mmHg 94%
    21:00 +15°C° 0.6 mm 0 mps 604 mmHg 94%
    22:00 +15°C° 0.6 mm 0 mps 605 mmHg 95%
    23:00 +15°C° 0.4 mm 0 mps 604 mmHg 95%

    26 October, Friday

    Time Temperature Precipitation Wind Pressure Humidity
    00:00 +15°C° 0.4 mm 0 mps 604 mmHg 95%
    01:00 +15°C° 0.4 mm 0 mps 604 mmHg 95%
    02:00 +15°C° 0.4 mm 0 mps 604 mmHg 95%
    03:00 +15°C° 0.4 mm 0 mps 603 mmHg 96%
    04:00 +15°C° 0.4 mm 0 mps 603 mmHg 96%
    05:00 +15°C° 0.2 mm 0 mps 604 mmHg 94%
    06:00 +15°C° 0.2 mm 0 mps 604 mmHg 92%
    07:00 +15°C° 0.2 mm 0 mps 605 mmHg 90%
    08:00 +16°C° 0.1 mm 0 mps 605 mmHg 85%
    09:00 +19°C° 0.1 mm 1 mps 606 mmHg 81%
    10:00 +19°C° 0.1 mm 2 mps 606 mmHg 76%
    11:00 +20°C° 0.2 mm 2 mps 606 mmHg 76%
    12:00 +20°C° 0.2 mm 2 mps 605 mmHg 75%
    13:00 +21°C° 0.2 mm 2 mps 605 mmHg 74%
    14:00 +20°C° 0.6 mm 2 mps 604 mmHg 76%
    15:00 +20°C° 0.6 mm 2 mps 604 mmHg 78%
    16:00 +21°C° 0.6 mm 1 mps 604 mmHg 80%
    17:00 +20°C° 0.9 mm 1 mps 604 mmHg 84%
    18:00 +19°C° 0.9 mm 1 mps 604 mmHg 88%
    19:00 +18°C° 0.9 mm 1 mps 604 mmHg 92%
    20:00 +18°C° 0.6 mm 1 mps 604 mmHg 92%
    21:00 +16°C° 0.6 mm 1 mps 605 mmHg 92%
    22:00 +16°C° 0.6 mm 1 mps 605 mmHg 92%
    23:00 +16°C° 0.4 mm 1 mps 605 mmHg 92%

    27 October, Saturday

    Time Temperature Precipitation Wind Pressure Humidity
    00:00 +16°C° 0.4 mm 1 mps 604 mmHg 92%
    01:00 +16°C° 0.4 mm 1 mps 604 mmHg 92%
    02:00 +15°C° 0.2 mm 0 mps 604 mmHg 92%
    03:00 +15°C° 0.2 mm 0 mps 603 mmHg 92%
    04:00 +15°C° 0.2 mm 0 mps 603 mmHg 92%
    05:00 +16°C° 0 mm 1 mps 604 mmHg 90%
    06:00 +16°C° 0 mm 1 mps 605 mmHg 88%
    07:00 +18°C° 0 mm 1 mps 605 mmHg 86%
    08:00 +19°C° 0 mm 1 mps 606 mmHg 78%
    09:00 +20°C° 0 mm 2 mps 607 mmHg 70%
    10:00 +23°C° 0 mm 2 mps 608 mmHg 62%
    11:00 +23°C° 0.2 mm 2 mps 607 mmHg 62%
    12:00 +23°C° 0.2 mm 2 mps 607 mmHg 62%
    13:00 +22°C° 0.2 mm 3 mps 606 mmHg 63%
    14:00 +23°C° 0.9 mm 2 mps 605 mmHg 66%
    15:00 +21°C° 0.9 mm 2 mps 605 mmHg 69%
    16:00 +20°C° 0.9 mm 2 mps 604 mmHg 72%
    17:00 +19°C° 0.6 mm 2 mps 604 mmHg 77%
    18:00 +19°C° 0.6 mm 1 mps 604 mmHg 82%
    19:00 +18°C° 0.6 mm 1 mps 605 mmHg 88%
    20:00 +16°C° 0.3 mm 1 mps 605 mmHg 86%
    21:00 +16°C° 0.3 mm 1 mps 605 mmHg 85%
    22:00 +16°C° 0.3 mm 1 mps 605 mmHg 84%
    23:00 +16°C° 0.2 mm 1 mps 605 mmHg 82%

    28 October, Sunday

    Time Temperature Precipitation Wind Pressure Humidity
    00:00 +16°C° 0.2 mm 1 mps 605 mmHg 81%
    01:00 +15°C° 0.2 mm 1 mps 604 mmHg 79%
    02:00 +15°C° 0 mm 1 mps 604 mmHg 78%
    03:00 +15°C° 0 mm 1 mps 604 mmHg 77%
    04:00 +15°C° 0 mm 1 mps 603 mmHg 76%
    05:00 +15°C° 0 mm 1 mps 604 mmHg 74%
    06:00 +16°C° 0 mm 1 mps 605 mmHg 72%
    07:00 +18°C° 0 mm 1 mps 606 mmHg 70%
    08:00 +19°C° 0 mm 2 mps 606 mmHg 64%
    09:00 +21°C° 0 mm 2 mps 607 mmHg 58%
    10:00 +24°C° 0 mm 3 mps 608 mmHg 53%
    11:00 +24°C° 0.1 mm 3 mps 607 mmHg 54%
    12:00 +24°C° 0.1 mm 2 mps 607 mmHg 55%
    13:00 +24°C° 0.1 mm 2 mps 606 mmHg 57%
    14:00 +23°C° 0.5 mm 2 mps 605 mmHg 62%
    15:00 +21°C° 0.5 mm 2 mps 605 mmHg 67%
    16:00 +21°C° 0.5 mm 2 mps 604 mmHg 71%
    17:00 +19°C° 0.7 mm 2 mps 604 mmHg 78%
    18:00 +19°C° 0.7 mm 1 mps 604 mmHg 84%
    19:00 +18°C° 0.7 mm 1 mps 604 mmHg 90%
    20:00 +16°C° 0.6 mm 1 mps 605 mmHg 90%
    21:00 +16°C° 0.6 mm 1 mps 605 mmHg 90%
    22:00 +16°C° 0.6 mm 1 mps 605 mmHg 90%
    23:00 +16°C° 0.3 mm 1 mps 605 mmHg 90%

    29 October, Monday

    Time Temperature Precipitation Wind Pressure Humidity
    00:00 +16°C° 0.3 mm 1 mps 604 mmHg 90%
    01:00 +15°C° 0.3 mm 1 mps 604 mmHg 90%
    02:00 +15°C° 0.2 mm 1 mps 604 mmHg 90%
    03:00 +15°C° 0.2 mm 1 mps 604 mmHg 89%
    04:00 +15°C° 0.2 mm 1 mps 603 mmHg 89%
    05:00 +15°C° 0.1 mm 1 mps 604 mmHg 86%
    06:00 +16°C° 0.1 mm 1 mps 605 mmHg 84%
    07:00 +16°C° 0.1 mm 1 mps 605 mmHg 81%
    08:00 +19°C° 0.1 mm 1 mps 606 mmHg 75%
    09:00 +20°C° 0.1 mm 2 mps 607 mmHg 70%
    10:00 +21°C° 0.1 mm 2 mps 607 mmHg 64%
    11:00 +23°C° 0.2 mm 2 mps 607 mmHg 63%
    12:00 +24°C° 0.2 mm 2 mps 606 mmHg 62%
    13:00 +24°C° 0.2 mm 2 mps 606 mmHg 60%
    14:00 +23°C° 1.3 mm 2 mps 605 mmHg 67%
    15:00 +21°C° 1.3 mm 2 mps 604 mmHg 74%
    16:00 +20°C° 1.3 mm 2 mps 604 mmHg 81%
    17:00 +20°C° 1.8 mm 1 mps 604 mmHg 85%
    18:00 +19°C° 1.8 mm 1 mps 604 mmHg 89%
    19:00 +18°C° 1.8 mm 1 mps 604 mmHg 92%
    20:00 +18°C° 1.8 mm 1 mps 604 mmHg 92%
    21:00 +18°C° 1.8 mm 1 mps 605 mmHg 92%
    22:00 +18°C° 1.8 mm 1 mps 605 mmHg 92%
    23:00 +18°C° 2.3 mm 1 mps 605 mmHg 92%
    Show more